• MPC Preparation (Info)

  • MPEC 2004-P33 : 2004 PZ19

    The following Minor Planet Electronic Circular may be linked-to from your own Web pages, but must not otherwise be redistributed electronically.

    A form allowing access to any MPEC is at the bottom of this page.


    Read MPEC 2004-P32 Read MPEC 2004-P34


    M.P.E.C. 2004-P33                                Issued 2004 Aug. 10, 09:18 UT
    
         The Minor Planet Electronic Circulars contain information on unusual
             minor planets and routine data on comets.  They are published
       on behalf of Commission 20 of the International Astronomical Union by the
              Minor Planet Center, Smithsonian Astrophysical Observatory,
                              Cambridge, MA 02138, U.S.A.
    
                      Supported in part by the Brinson Foundation
                 Prepared using the Tamkin Foundation Computer Network
    
                                  MPC@CFA.HARVARD.EDU
              URL http://cfa-www.harvard.edu/iau/mpc.html  ISSN 1523-6714
    
                                       2004 PZ19
    
    Observations:
         K04P19Z* C2004 08 09.15457 18 18 27.86 -04 27 36.1          18.7   EP033704
         K04P19Z  C2004 08 09.16386 18 18 16.05 -04 28 24.1          18.5   EP033704
         K04P19Z  C2004 08 09.17316 18 18 04.16 -04 29 12.4          18.7   EP033704
         K04P19Z  C2004 08 09.18251 18 17 52.10 -04 30 01.2          18.7   EP033704
         K04P19Z  C2004 08 09.19197 18 17 39.83 -04 30 50.7          18.5   EP033704
         K04P19Z  C2004 08 09.85002 18 01 29.91 -05 47 20.1          16.8 R EP033246
         K04P19Z  C2004 08 09.85094 18 01 27.88 -05 47 28.4                 EP033246
         K04P19Z  C2004 08 09.85151 18 01 26.76 -05 47 32.8                 EP033246
         K04P19Z  C2004 08 09.85201 18 01 25.70 -05 47 36.6                 EP033246
         K04P19Z  C2004 08 09.85286 18 01 23.93 -05 47 44.4                 EP033246
         K04P19Z  C2004 08 09.85512 18 01 22.29 -05 47 52.1          17.4 V EP033A16
         K04P19Z  C2004 08 09.85780 18 01 16.62 -05 48 16.0          17.7 V EP033A16
         K04P19Z  C2004 08 09.86069 18 01 10.48 -05 48 41.4          17.5 V EP033A16
         K04P19Z  C2004 08 09.86348 18 01 04.64 -05 49 06.4          16.7 V EP033A16
         K04P19Z  C2004 08 09.86627 18 00 58.53 -05 49 31.3          17.4 V EP033A16
         K04P19Z  C2004 08 09.90831 17 59 28.07 -05 54 57.3          17.2 R EP033620
         K04P19Z  C2004 08 09.91627 17 59 10.13 -05 56 11.2          17.3 R EP033620
         K04P19Z  C2004 08 09.94677 17 58 02.04 -06 00 51.2          16.0   EP033952
         K04P19Z  C2004 08 09.94712 17 58 01.24 -06 00 54.3          15.9   EP033952
         K04P19Z  C2004 08 09.94748 17 58 00.37 -06 00 57.1          16.3   EP033952
         K04P19Z  C2004 08 09.94820 17 57 58.72 -06 01 04.0          17.7   EP033952
         K04P19Z  C2004 08 09.94855 17 57 57.93 -06 01 07.4          17.4   EP033952
         K04P19Z  C2004 08 09.94891 17 57 57.12 -06 01 10.4          17.5   EP033952
         K04P19Z  C2004 08 09.94927 17 57 56.29 -06 01 13.8          17.4   EP033952
         K04P19Z  C2004 08 09.94963 17 57 55.46 -06 01 17.5          17.3   EP033952
         K04P19Z  C2004 08 10.05000 17 54 34.42 -06 18 37.9          16.0 R EP033932
         K04P19Z  C2004 08 10.05556 17 54 20.18 -06 19 37.0          16.4 R EP033932
         K04P19Z  C2004 08 10.06319 17 54 00.50 -06 20 58.2          16.7 R EP033932
         K04P19Z  C2004 08 10.12699 17 51 23.35 -06 32 16.4          16.8 R EP033649
         K04P19Z  C2004 08 10.12769 17 51 21.46 -06 32 24.4          16.9 R EP033649
         K04P19Z  C2004 08 10.12838 17 51 19.56 -06 32 32.0          16.7 R EP033649
         K04P19Z  C2004 08 10.12906 17 51 17.65 -06 32 39.9          16.8 R EP033649
         K04P19Z  C2004 08 10.12975 17 51 15.74 -06 32 47.5          16.6 R EP033649
         K04P19Z 5C2004 08 10.14313 17 50 54.46 -06 34 38.6          16.0 R EP033673
         K04P19Z 5C2004 08 10.14777 17 50 41.44 -06 35 32.0                 EP033673
         K04P19Z 5C2004 08 10.15071 17 50 33.06 -06 36 06.7                 EP033673
         K04P19Z 5C2004 08 10.18405 17 48 56.55 -06 42 41.6          16.5 R EP033673
         K04P19Z 5C2004 08 10.18648 17 48 49.37 -06 43 10.6                 EP033673
         K04P19Z 5C2004 08 10.18856 17 48 42.86 -06 43 36.9                 EP033673
         K04P19Z 5C2004 08 10.22608 17 46 49.92 -06 51 12.7          16.5 R EP033673
         K04P19Z 5C2004 08 10.22722 17 46 46.40 -06 51 26.6                 EP033673
         K04P19Z  C2004 08 10.22777 17 46 39.16 -06 51 09.5          17.4 R EP033854
         K04P19Z  C2004 08 10.22833 17 46 37.63 -06 51 16.1          17.2 R EP033854
         K04P19Z  C2004 08 10.22887 17 46 35.87 -06 51 22.8          16.8 R EP033854
         K04P19Z 5C2004 08 10.23069 17 46 35.69 -06 52 10.1                 EP033673
         K04P19Z  C2004 08 10.23268 17 46 24.18 -06 52 09.6          16.8 R EP033854
         K04P19Z  C2004 08 10.25576 17 45 09.19 -06 56 58.4          16.3 R EP033H06
         K04P19Z  C2004 08 10.25609 17 45 08.16 -06 57 02.6          16.4 R EP033H06
         K04P19Z  C2004 08 10.25646 17 45 07.03 -06 57 07.2          16.5 R EP033H06
         K04P19Z  C2004 08 10.25683 17 45 05.81 -06 57 12.0          16.6 R EP033H06
         K04P19Z  C2004 08 10.25722 17 45 04.67 -06 57 16.7          16.2 R EP033H06
         K04P19Z  C2004 08 10.25763 17 45 03.47 -06 57 21.6          16.5 R EP033H06
         K04P19Z  C2004 08 10.25800 17 45 02.19 -06 57 26.3          15.8 R EP033H06
         K04P19Z  C2004 08 10.25837 17 45 01.04 -06 57 31.3          16.5 R EP033H06
         K04P19Z  C2004 08 10.25874 17 44 59.89 -06 57 36.2          16.6 R EP033H06
         K04P19Z  C2004 08 10.25912 17 44 58.67 -06 57 40.6          16.2 R EP033H06
    
    Observer details:
    246 Klet Observatory-KLENOT.  Observer M. Tichy.  1.06-m KLENOT Telescope
        + CCD.
    620 Observatorio Astronomico de Mallorca.  Observers A. Petrov, S. Cikota,
        N. Udovicic, R. Stoss.  0.30-m f/9 Schmidt-Cassegrain + CCD.
    649 Powell Observatory, Louisburg.  Observer R. Fredrick.  0.75-m Newtonian
        reflector + CCD.
    673 Table Mountain Observatory, Wrightwood.  Observer M. Vale.  Measurer
        J. Young.  0.6-m reflector + CCD.
    704 Lincoln Laboratory ETS, New Mexico.  Observers M. Blythe, F. Shelly,
        M. Bezpalko, R. Huber, L. Manguso, D. Torres, R. Kracke, M. McCleary,
        H. Stange, A. Milner.  Measurers J. Stuart, R. Sayer, J. Evans, J. Kommers.
        1.0-m f/2.15 reflector + CCD.
    854 Sabino Canyon Observatory, Tucson.  Observer J. E. McGaha.  0.36-m f/10.0
        Schmidt-Cassegrain + CCD.
    932 John J. McCarthy Obs., New Milford.  Observer M. Robson.  Measurer
        A. Engine.  0.4-m f/6.5 Schmidt-Cassegrain + CCD.
    952 Marxuquera.  Observer J. J. Gomez.  0.25-m f/7.3 Schmidt-Cassegrain + CCD.
    A16 Tentlingen.  Observer P. Kocher.  0.3-m f/4 reflector + CCD.
    H06 New Mexico Skies Observatory.  Observer R. Hutsebaut.  0.25-m reflector
        + CCD.
    
    Orbital elements:
    2004 PZ19
    Epoch 2004 July 14.0 TT = JDT 2453200.5                 MPC
    M 338.61458              (2000.0)            P               Q
    n   0.34462204     Peri.  223.80349     +0.99554825     -0.05057657
    a   2.0148405      Node   138.89566     +0.07300043     +0.94753001
    e   0.5466665      Incl.    6.94849     -0.05962062     +0.31564046
    P   2.86           H   24.5           G   0.15           U   6
    Residuals in seconds of arc
    040809 704  0.6-  0.5+    040809 952  0.9-  0.1-    040810 673 (5.0-  1.2-)
    040809 704  0.4-  0.3+    040809 952  0.7-  0.2-    040810 673  0.0   0.1+
    040809 704  0.0   0.1+    040809 952  0.4-  0.3-    040810 673  0.2-  0.3+
    040809 704  0.1+  0.2-    040809 952  0.1-  0.1+    040810 854 (4.3-  0.8-)
    040809 704  0.4+  0.3-    040809 952  0.1-  0.1+    040810 854  1.4-  0.5-
    040809 246  2.2+  0.0     040809 952  0.0   0.2-    040810 854  2.9-  0.6-
    040809 246  0.8+  0.2-    040810 932  0.0   0.2+    040810 673  0.4-  0.2-
    040809 246  2.0+  0.4+    040810 932  0.1+  0.1+    040810 854  2.0-  0.4-
    040809 246  1.9+  1.0+    040810 932  0.3+  0.3+    040810 H06  0.0   0.1+
    040809 246  2.3+  0.7+    040810 649  0.7-  0.0     040810 H06  0.0   0.1+
    040809 A16  2.4-  0.4-    040810 649  0.0   0.1-    040810 H06  0.4+  0.1+
    040809 A16  2.1-  0.6-    040810 649  0.2+  0.1+    040810 H06  0.5-  0.1-
    040809 A16  1.9-  0.3-    040810 649  0.2-  0.1-    040810 H06  0.8+  0.1+
    040809 A16  0.2-  0.5-    040810 649  0.1-  0.2+    040810 H06  2.0+  0.4+
    040809 A16  2.3-  0.6-    040810 673  0.1+  0.0     040810 H06  0.3+  0.3+
    040809 620  1.4+  0.5+    040810 673  1.2+  0.6+    040810 H06  0.4+  0.1-
    040809 620  0.8+  0.3-    040810 673  0.5+  0.2+    040810 H06  0.6+  0.3-
    040809 952  0.5-  0.9-    040810 673  0.3+  0.1-    040810 H06  0.2+  0.0
    040809 952  0.4-  0.7-    040810 673  0.3+  0.1+
    
    Ephemeris:
    2004 PZ19                a,e,i = 2.01, 0.55, 7                   q = 0.9134
    Date    TT    R. A. (2000) Decl.     Delta      r     Elong.  Phase     V
    2004 08 03    18 54.19   -01 46.0    0.058    1.064   146.7    31.5    19.8
    2004 08 04    18 52.02   -01 53.7    0.052    1.057   145.6    32.8    19.6
    2004 08 05    18 49.30   -02 04.3    0.045    1.051   144.3    34.2    19.3
    2004 08 06    18 45.73   -02 19.2    0.038    1.045   142.9    35.9    19.0
    2004 08 07    18 40.79   -02 40.9    0.032    1.039   141.1    37.8    18.6
    2004 08 08    18 33.41   -03 14.2    0.025    1.033   138.8    40.3    18.2
    2004 08 09    18 21.10   -04 10.3    0.019    1.027   135.4    43.9    17.6
    2004 08 10    17 56.44   -06 01.4    0.013    1.022   129.1    50.3    16.9
    2004 08 11    16 46.18   -10 48.5    0.0069   1.016   112.4    67.2    16.1
    2004 08 12    12 06.67   -16 54.7    0.0042   1.011    50.5   129.3    18.3
    2004 08 13    08 55.98   -07 47.1    0.0086   1.005    24.1   155.7    23.9
    
    Kyle E. Smalley              (C) Copyright 2004 MPC           M.P.E.C. 2004-P33
    

    Read MPEC 2004-P32 Read MPEC 2004-P34


    MPEC number:

    Enter an MPEC number in one of the following forms:

    • 1997-B01 (the full form)
    • J97B01 (the packed version of the full form)
    • B01 (the abbreviated form)